DW1289 Weather Reports


time (UTC)temp
C
wind
direction
speed
KPH
gust
KPH
rain 1hr
cm
rain 24hr
cm
rain mn
cm
humidity
%
barometer
mb
20260504032016 10 0.0 0.0 0.00 0.00 0.00 68 1014.3
20260504031016 11 0.0 0.0 0.00 0.00 0.00 68 1014.5
20260504030016 11 0.0 0.0 0.00 0.00 0.00 68 1014.5
20260504025016 11 0.0 0.0 0.00 0.00 0.00 67 1014.5
20260504024017 11 0.0 0.0 0.00 0.00 0.00 66 1014.5
20260504023017 11 0.0 0.0 0.00 0.00 0.00 65 1014.5
20260504022016 12 0.0 0.0 0.00 0.00 0.00 63 1014.5
20260504021016 12 0.0 0.0 0.00 0.00 0.00 61 1014.6
20260504020016 12 0.0 0.0 0.00 0.00 0.00 60 1014.6
20260504015016 13 0.0 0.0 0.00 0.00 0.00 58 1014.5
20260504014016 13 0.0 0.0 0.00 0.00 0.00 56 1014.5
20260504013017 13 0.0 0.0 0.00 0.00 0.00 54 1014.5
20260504012036 15 0.0 0.0 0.00 0.00 0.00 52 1014.4
20260504011017 15 0.0 0.0 0.00 0.00 0.00 50 1014.3
20260504010017 15 0.0 3.2 0.00 0.00 0.00 49 1014.1
20260504005016 16 225 3.2 6.4 0.00 0.00 0.00 48 1013.7
20260504004016 16 248 3.2 11.3 0.00 0.00 0.00 48 1013.8
20260504003016 16 248 3.2 9.7 0.00 0.00 0.00 46 1013.9
20260504002016 16 248 4.8 11.3 0.00 0.00 0.00 46 1013.7
20260504001056 17 248 6.4 17.7 0.00 0.00 0.00 46 1013.7
20260504000016 17 225 6.4 17.7 0.00 0.00 0.00 45 1013.6
20260503235016 17 248 8.0 19.3 0.00 0.00 0.00 45 1013.5
20260503234016 17 248 8.0 19.3 0.00 0.00 0.00 45 1013.6
20260503233016 17 248 8.0 20.9 0.00 0.00 0.00 44 1013.6
20260503232036 17 248 8.0 19.3 0.00 0.00 0.00 44 1013.7
20260503231036 17 248 9.7 19.3 0.00 0.00 0.00 44 1013.7
20260503230016 18 248 6.4 17.7 0.00 0.00 0.00 44 1013.9
20260503225016 18 225 6.4 16.1 0.00 0.00 0.00 43 1014.2
20260503224016 18 248 9.7 19.3 0.00 0.00 0.00 43 1014.5
20260503223016 18 248 9.7 22.5 0.00 0.00 0.00 42 1014.5
20260503222016 18 248 9.7 20.9 0.00 0.00 0.00 41 1014.9
20260503221016 18 248 8.0 24.1 0.00 0.00 0.00 40 1014.7
20260503220016 18 248 9.7 19.3 0.00 0.00 0.00 40 1014.9
20260503215016 18 248 9.7 20.9 0.00 0.00 0.00 40 1015.3
20260503214036 18 248 12.9 22.5 0.00 0.00 0.00 37 1015.3
20260503213016 19 248 11.3 27.4 0.00 0.00 0.00 38 1015.8
20260503212016 19 248 9.7 19.3 0.00 0.00 0.00 39 1015.9
20260503211016 18 248 11.3 25.7 0.00 0.00 0.00 38 1015.9
20260503210016 19 248 11.3 29.0 0.00 0.00 0.00 37 1015.6
20260503205016 18 248 9.7 19.3 0.00 0.00 0.00 38 1015.9
20260503204036 18 248 9.7 19.3 0.00 0.00 0.00 39 1016.2
20260503203037 18 248 9.7 19.3 0.00 0.00 0.00 38 1016.2
20260503202036 19 248 12.9 30.6 0.00 0.00 0.00 35 1016.4
20260503201036 19 248 9.7 20.9 0.00 0.00 0.00 41 1016.6
20260503200016 19 248 8.0 16.1 0.00 0.00 0.00 36 1016.8
20260503195016 19 248 9.7 25.7 0.00 0.00 0.00 37 1017.1
20260503194016 19 248 8.0 17.7 0.00 0.00 0.00 41 1017.4
20260503193016 19 248 9.7 20.9 0.00 0.00 0.00 36 1017.7
20260503192016 19 248 9.7 20.9 0.00 0.00 0.00 39 1017.9
20260503191056 18 248 9.7 22.5 0.00 0.00 0.00 37 1018.1
20260503190036 19 248 9.7 20.9 0.00 0.00 0.00 41 1018.3
20260503185016 18 248 11.3 25.7 0.00 0.00 0.00 40 1018.5
20260503184016 18 270 8.0 19.3 0.00 0.00 0.00 39 1018.6
20260503183016 18 248 8.0 22.5 0.00 0.00 0.00 40 1018.8
20260503182036 18 248 6.4 14.5 0.00 0.00 0.00 41 1019.0
20260503181016 18 248 8.0 19.3 0.00 0.00 0.00 41 1019.1
20260503180016 18 248 8.0 24.1 0.00 0.00 0.00 39 1019.1
20260503175016 18 248 8.0 17.7 0.00 0.00 0.00 41 1019.4
20260503174036 18 248 6.4 19.3 0.00 0.00 0.00 40 1019.4
20260503173016 17 248 6.4 17.7 0.00 0.00 0.00 39 1019.5
20260503172016 17 248 8.0 19.3 0.00 0.00 0.00 37 1019.8
20260503171016 17 248 8.0 20.9 0.00 0.00 0.00 38 1020.2
20260503131016 7 225 4.8 11.3 0.00 0.00 0.00 80 1021.6
20260503081016 1 0.0 0.0 0.00 0.00 0.00 81 1020.2
20260503072016 2 0.0 0.0 0.00 0.00 0.00 80 1020.0
20260503071016 2 0.0 0.0 0.00 0.00 0.00 80 1019.9
20260503055016 3 0.0 0.0 0.00 0.00 0.00 78 1020.3
20260503054016 3 0.0 0.0 0.00 0.00 0.00 76 1020.2
20260503053056 3 0.0 0.0 0.00 0.00 0.00 76 1020.2
20260503052016 4 0.0 0.0 0.00 0.00 0.00 76 1020.1
20260503051016 4 0.0 0.0 0.00 0.00 0.00 75 1020.1
20260503050016 5 0.0 0.0 0.00 0.00 0.00 75 1020.1
20260503045016 5 0.0 0.0 0.00 0.00 0.00 75 1020.2
20260503044016 5 0.0 0.0 0.00 0.00 0.00 74 1020.1
20260503043016 5 0.0 0.0 0.00 0.00 0.00 73 1020.1
20260503042016 6 0.0 0.0 0.00 0.00 0.00 73 1020.0
20260503041016 6 0.0 0.0 0.00 0.00 0.00 72 1020.0
20260503040036 6 0.0 0.0 0.00 0.00 0.00 71 1020.0
20260503035036 6 0.0 0.0 0.00 0.00 0.00 71 1020.1
20260503034037 7 0.0 0.0 0.00 0.00 0.00 70 1019.9
20260503033016 7 0.0 0.0 0.00 0.00 0.00 68 1019.9